Погода в Завидном

Россия / Рязанская область     53°57′44″N   42°03′40″E
темп.,
°C
ветер,
м/с
пор.,
м/с
влажн.,
%
обл.,
%
осадки,
мм/ч
давл.,
гПа
погр.,
м
28 октября, чт
чт2800:00+7з51273100 0.0 1016704
03:00+5зюз4108895 0.0 1017418
06:00+5юз51083100 0.0 1016402
09:00+6юз51179100 0.0 1015463
12:00+9юз61167100 0.0 1014824
15:00+7юз51188100 1.0 1012715
18:00+7зюз41092100 0.4 1013525
21:00+7сз4994100 0.6 1015589
29 октября, пт
пт2900:00+7с4891100 0.1 1018705
03:00+6с4876100 0.1 1021682
06:00+6св2573100 0.0 1024268
09:00+7с1271100 0.0 1026154
12:00+8з116094 0.0 1027874
15:00+9юз2358100 0.0 1027882
18:00+7юз3769100 0.0 1028266
21:00+7юз4106798 0.0 1027455
30 октября, сб
сб3000:00+7юз4107663 0.0 1027377
03:00+6юз498516 0.0 1028251
06:00+6зюз4119457 0.0 1028282
09:00+8зюз4119098 0.0 1029363
12:00+12з510745 0.0 1028554
15:00+13зюз510735 0.0 1028622
18:00+10зюз410875 0.0 1029270
21:00+8зюз410885 0.0 1030247
31 октября, вс
вс3100:00+7зюз39845 0.0 1030199
03:00+6зюз39825 0.0 1031171
06:00+5зюз38855 0.0 1031140
09:00+7юз38775 0.0 1031215
12:00+11зюз585513 0.0 1030438
15:00+12юз49555 0.0 1029528
18:00+8юз39705 0.0 1029183
21:00+7юз387611 0.0 1029165
1 ноября, пн
пн100:00+6юз38795 0.0 1029146
03:00+5юз37795 0.0 1029138
06:00+4юз37815 0.0 1028129
09:00+6юз38712 0.0 1028210
12:00+11юз46505 0.0 1027396
15:00+11юз36500 0.0 1026397
18:00+7ююз33640 0.0 102642
21:00+6ююз33690 0.0 102544